AJ5TT Weather Reports


time (UTC)temp
C
wind
direction
speed
KPH
gust
KPH
rain 1hr
cm
rain 24hr
cm
rain mn
cm
humidity
%
barometer
mb
20260905133056 27 0 0.0 0.0 0.00 0.00 0.00 92 1015.0
20260905131611 26 0 0.0 0.0 0.00 0.00 0.00 94 1014.9
20260905130105 25 0 0.0 0.0 0.00 0.00 0.00 94 1014.7
20260905124601 25 0 0.0 0.0 0.00 0.00 0.00 95 1014.4
20260905123100 25 0 0.0 0.0 0.00 0.00 0.00 94 1014.3
20260905121605 25 0 0.0 0.0 0.00 0.00 0.00 94 1014.3
20260905120104 25 0 0.0 0.0 0.00 0.00 0.00 94 1014.0
20260905114612 24 0 0.0 0.0 0.00 0.00 0.00 94 1013.8
20260905113109 25 0 0.0 0.0 0.00 0.00 0.00 94 1013.7
20260905111615 25 0 0.0 0.0 0.00 0.00 0.00 94 1013.6
20260905110104 25 0 0.0 0.0 0.00 0.00 0.00 94 1013.4
20260905104559 25 0 0.0 0.0 0.00 0.00 0.00 94 1013.3
20260905103104 25 0 0.0 0.0 0.00 0.00 0.00 94 1013.3
20260905101600 25 0 0.0 0.0 0.00 0.00 0.00 94 1013.3
20260905100108 25 0 0.0 0.0 0.00 0.00 0.00 94 1013.6
20260905094612 25 0 0.0 0.0 0.00 0.00 0.00 94 1013.4
20260905093103 25 0 0.0 0.0 0.00 0.00 0.00 94 1013.4
20260905091607 25 0 0.0 0.0 0.00 0.00 0.00 93 1013.4
20260905090054 25 0 0.0 0.0 0.00 0.00 0.00 94 1013.4
20260905084609 25 0 0.0 0.0 0.00 0.00 0.00 93 1013.2
20260905083103 25 0 0.0 0.0 0.00 0.00 0.00 93 1013.2
20260905081616 25 0 0.0 0.0 0.00 0.00 0.00 93 1013.2
20260905080100 25 0 0.0 0.0 0.00 0.00 0.00 93 1013.2
20260905074605 25 0 0.0 0.0 0.00 0.00 0.00 92 1013.3
20260905073104 25 0 0.0 0.0 0.00 0.00 0.00 92 1013.3
20260905071604 25 0 0.0 0.0 0.00 0.00 0.00 92 1013.6
20260905070100 26 0 0.0 0.0 0.00 0.00 0.00 91 1013.6
20260905064604 26 0 0.0 0.0 0.00 0.00 0.00 92 1013.7
20260905063118 26 0 0.0 0.0 0.00 0.00 0.00 91 1014.0
20260905061613 26 0 0.0 0.0 0.00 0.00 0.00 91 1014.0
20260905060057 26 0 0.0 0.0 0.00 0.00 0.00 91 1014.0
20260905054606 26 0 0.0 0.0 0.00 0.00 0.00 90 1014.0
20260905053103 26 0 0.0 0.0 0.00 0.00 0.00 89 1014.1
20260905051601 27 0 0.0 0.0 0.00 0.00 0.00 88 1014.1
20260905050105 27 0 0.0 0.0 0.00 0.00 0.00 87 1014.0
20260905044607 27 0 0.0 0.0 0.00 0.00 0.00 87 1014.0
20260905043130 27 0 0.0 3.2 0.00 0.00 0.00 87 1013.9
20260905041602 27 0 0.0 4.8 0.00 0.00 0.00 86 1014.1
20260905040118 27 0 0.0 3.2 0.00 0.00 0.00 86 1014.3
20260905034606 27 0 0.0 3.2 0.00 0.00 0.00 85 1014.4
20260905033103 27 0 0.0 3.2 0.00 0.00 0.00 85 1014.3
20260905031604 27 163 0.0 0.0 0.00 0.00 0.00 84 1014.2
20260905030106 28 0 0.0 0.0 0.00 0.00 0.00 84 1014.4
20260905024605 28 0 0.0 0.0 0.00 0.00 0.00 83 1014.5
20260905023106 28 0 0.0 0.0 0.00 0.00 0.00 83 1014.4
20260905021605 28 0 0.0 0.0 0.00 0.00 0.00 83 1014.2
20260905020106 28 0 0.0 0.0 0.00 0.00 0.00 81 1013.9
20260905014605 28 161 1.6 3.2 0.00 0.00 0.00 80 1013.9
20260905013105 28 191 0.0 4.8 0.00 0.00 0.00 79 1013.7
20260905011606 29 149 0.0 3.2 0.00 0.00 0.00 78 1013.6
20260905010108 29 0 0.0 3.2 0.00 0.00 0.00 77 1013.6
20260905004610 30 163 0.0 6.4 0.00 0.00 0.00 76 1013.3
20260905003105 30 229 1.6 9.7 0.00 0.00 0.00 75 1013.3
20260905001602 30 206 1.6 8.0 0.00 0.00 0.00 73 1013.3
20260905000059 31 163 4.8 11.3 0.00 0.00 0.00 72 1013.2
20260904234606 31 167 3.2 8.0 0.00 0.00 0.00 70 1013.1
20260904233108 32 221 1.6 4.8 0.00 0.00 0.00 69 1013.1
20260904231604 32 266 1.6 6.4 0.00 0.00 0.00 68 1013.2
20260904230109 32 171 3.2 9.7 0.00 0.00 0.00 67 1013.1
20260904224605 32 223 1.6 4.8 0.00 0.00 0.00 67 1013.2
20260904223059 32 335 1.6 9.7 0.00 0.00 0.00 66 1013.2
20260904221605 33 215 3.2 8.0 0.00 0.00 0.00 63 1013.2
20260904220116 33 248 3.2 11.3 0.00 0.00 0.00 64 1013.0
20260904214605 33 238 3.2 9.7 0.00 0.00 0.00 62 1013.2
20260904213113 33 126 1.6 6.4 0.00 0.00 0.00 62 1013.3
20260904211614 33 118 3.2 8.0 0.00 0.00 0.00 63 1013.6
20260904210110 33 263 3.2 9.7 0.00 0.00 0.00 65 1013.6
20260904204611 32 253 3.2 12.9 0.00 0.00 0.00 64 1013.9
20260904203106 33 119 3.2 17.7 0.00 0.00 0.00 64 1013.9
20260904201625 34 70 1.6 14.5 0.00 0.00 0.00 58 1014.1
20260904194620 32 48 6.4 17.7 0.00 0.00 0.00 61 1014.2
20260904193111 33 12 3.2 20.9 0.00 0.00 0.00 63 1014.4
20260904191602 32 13 6.4 17.7 0.00 0.00 0.00 64 1014.7
20260904190111 32 234 4.8 8.0 0.00 0.00 0.00 68 1014.9
20260904184603 32 192 3.2 8.0 0.00 0.00 0.00 68 1015.1
20260904183120 31 224 6.4 11.3 0.00 0.00 0.00 73 1015.0
20260904181604 30 225 6.4 12.9 0.00 0.00 0.00 73 1015.4
20260904180124 29 225 4.8 14.5 0.00 0.00 0.00 75 1015.7
20260904174610 30 240 6.4 16.1 0.00 0.00 0.00 76 1015.8
20260904173107 31 274 0.0 4.8 0.00 0.00 0.00 71 1015.7
20260904171603 31 113 0.0 4.8 0.00 0.00 0.00 77 1015.8
20260904170057 30 23 0.0 4.8 0.00 0.00 0.00 78 1016.0
20260904164608 29 72 0.0 3.2 0.00 0.00 0.00 83 1016.1
20260904163100 28 41 0.0 3.2 0.00 0.00 0.00 82 1016.1
20260904161627 28 0 0.0 4.8 0.00 0.00 0.00 81 1016.1
20260904160107 28 61 1.6 6.4 0.00 0.00 0.00 82 1015.8
20260904154605 28 333 0.0 3.2 0.00 0.00 0.00 83 1015.8
20260904153104 28 22 3.2 4.8 0.00 0.00 0.00 85 1015.8
20260904151602 28 46 0.0 6.4 0.00 0.00 0.00 86 1015.5
20260904150100 28 39 1.6 3.2 0.00 0.00 0.00 86 1015.3
20260904144609 28 70 0.0 4.8 0.00 0.00 0.00 86 1015.3
20260904143103 27 52 0.0 3.2 0.00 0.00 0.00 88 1015.2
20260904141602 27 0 0.0 3.2 0.00 0.00 0.00 91 1015.1
20260904134606 26 0 0.0 3.2 0.00 0.00 0.00 93 1015.0